Find Starlink 36959

NORAD ID: 68060 Int'l Des: 2026-041 Owner: SPXS Country: US Constellation: starlink operational
LEOCIRCULAR

Live Position

Loading 3D Globe...

About Starlink 36959

Description loading...

Upcoming Passes

Passes for default location (London). Set your location on the main map for personalized predictions.

Altitude History

Loading altitude history...

Two-Line Element Set

1 68060U 26041W 26106.91668981 -.01765893 00000-0 -44955-1 0 9995
2 68060 53.1598 232.6523 0000955 64.0160 31.4748 15.42122708 6041
Epoch: Apr 16, 2026 • Age: 6 hours

Current Status

Altitude 448.2 km
Velocity 7.65 km/s
Sub-Earth Point 51.25°N, 32.15°E
Launch Date Mar 2, 2026
Age 0.1 years
Type internet

Technical Details

Classification Payload
Mass 575.00 kg
Dry Mass 530.00 kg
Total Mass 575.00 kg
Length 0.30 m
Diameter 4.10 m
Span 29.00 m
Shape Box + pan
Manufacturer SPXS
Bus Type Starlink V2MO
Phase Status In Orbit
Owner/State SPXS/US

Most Searched